Wind_Speed
22 22 22 23 24 24 23 21 19 19 20 19 20 20 19 19 18 18 18 19 19 19 19 18 18 18 18 18 17 17 16 16 16 16 15 15 15 15 15 15 14 14 14 13 13 12 11 11 11
23 24 24 24 25 24 23 21 21 20 21 20 21 21 20 20 19 18 18 19 20 20 20 20 20 20 20 20 19 19 18 18 18 17 17 17 17 17 17 17 17 16 15 15 15 14 13 12 12
24 24 25 26 25 24 23 22 22 22 22 22 22 22 21 20 20 20 20 20 20 21 21 21 21 21 22 22 21 21 20 20 19 19 19 19 19 19 19 18 19 18 18 17 17 16 15 14 14
24 25 26 26 25 24 24 23 24 24 24 24 23 23 22 21 21 22 20 21 22 22 22 22 23 23 23 23 23 23 22 22 22 21 21 20 20 20 20 20 21 20 20 19 18 18 17 17 16
24 25 26 26 25 24 24 25 25 25 25 25 25 25 23 23 22 23 22 22 22 22 23 23 24 24 24 24 25 25 24 24 24 24 23 23 22 22 22 22 22 22 22 21 20 20 19 19 18
24 25 26 26 25 25 25 26 26 25 26 26 27 27 25 25 24 23 23 23 23 23 24 24 24 25 25 25 25 26 26 26 26 26 26 25 25 24 25 24 24 24 24 23 23 22 21 21 21
25 25 26 25 25 25 25 26 27 27 27 27 27 28 27 26 26 25 25 25 24 24 24 24 25 26 26 26 26 27 27 28 28 27 28 27 27 27 26 27 26 26 26 25 25 25 23 22 22
25 26 26 25 25 26 26 27 27 28 28 28 28 29 28 28 28 27 27 27 26 26 26 26 26 26 27 27 28 29 29 29 29 30 29 29 29 29 28 28 28 28 28 27 27 26 25 25 24
27 27 26 26 26 27 27 28 28 29 29 28 29 29 29 30 30 29 29 29 28 28 28 29 29 29 28 29 29 30 30 31 31 31 31 31 31 31 31 30 30 30 30 29 28 27 27 26 26
28 28 27 27 27 28 28 29 30 30 30 30 30 31 30 31 31 31 31 30 30 30 30 30 31 31 31 31 31 31 32 32 32 33 32 33 33 32 32 32 32 32 31 30 30 29 28 28 27
28 29 28 28 28 29 29 30 31 31 31 31 31 31 31 32 32 32 32 32 32 31 31 31 32 33 33 33 33 33 33 33 33 34 34 34 34 34 34 34 33 33 33 32 31 31 30 30 29
29 29 29 29 30 30 30 31 32 32 32 32 32 32 33 33 32 33 33 33 33 33 33 33 34 34 35 35 35 34 35 35 34 35 35 35 35 36 36 36 36 36 35 35 34 34 33 32 32
28 28 28 29 30 30 31 31 32 32 33 33 33 33 33 34 34 34 34 34 35 35 35 35 36 35 36 36 36 35 36 36 36 36 36 36 37 37 38 39 38 38 37 36 36 36 35 34 33
28 28 28 29 30 30 31 31 32 32 33 34 34 34 34 35 35 35 35 35 35 36 37 37 37 37 37 37 37 37 37 37 38 38 38 37 38 38 39 40 40 40 39 39 39 38 38 37 36
29 29 29 29 30 30 31 32 31 31 33 34 35 34 34 35 35 35 35 36 36 36 37 38 38 39 39 39 39 39 38 38 39 39 40 39 40 40 41 42 42 41 41 41 41 41 40 39 38
29 30 30 30 30 30 31 31 31 32 32 33 34 34 35 35 36 36 36 36 37 37 38 39 39 40 40 40 40 41 41 41 41 41 41 41 42 42 43 44 43 43 42 42 42 42 41 41 40
31 30 30 30 30 30 31 31 31 32 33 34 34 34 35 36 36 36 37 37 38 38 39 39 40 40 41 42 43 43 44 44 44 44 44 43 44 44 45 45 45 45 45 44 44 43 43 43 42
30 30 31 31 31 31 32 31 32 33 34 34 35 35 35 36 36 37 37 38 38 39 40 40 41 41 42 43 44 44 44 45 46 46 47 47 46 46 47 47 47 47 47 47 46 46 45 45 45
30 31 31 32 32 32 32 32 32 33 34 35 35 35 35 36 36 36 37 38 39 40 40 41 41 42 43 43 44 44 45 46 47 47 48 49 48 48 47 48 49 50 50 49 49 48 47 47 47
30 31 32 32 33 34 33 33 33 33 34 35 36 35 35 36 36 37 38 39 40 41 41 42 42 42 43 44 44 45 46 46 47 47 48 48 49 49 48 48 48 50 51 51 51 50 49 48 48
30 31 32 33 34 34 35 35 34 34 34 36 36 36 36 36 36 37 39 40 41 41 42 42 42 42 43 44 44 44 46 47 47 47 47 48 48 49 49 49 49 50 51 52 53 52 51 50 50
30 31 32 33 34 35 35 36 34 34 34 35 36 37 37 38 38 39 39 40 42 42 43 42 43 43 43 43 43 43 44 45 46 46 46 47 48 49 50 49 50 50 51 52 53 53 52 52 52
29 30 31 32 33 35 35 37 36 35 35 35 35 36 37 38 39 39 40 41 42 43 43 43 44 44 45 45 44 43 43 43 44 45 46 47 48 49 50 49 50 51 52 53 55 55 54 53 53
28 29 31 32 33 35 34 36 37 36 35 36 36 36 37 38 39 40 41 41 42 42 43 44 44 45 45 45 45 45 43 43 43 45 45 47 48 49 50 49 49 51 52 54 55 56 56 55 54
28 29 30 32 33 34 33 35 36 35 35 35 36 37 37 37 39 39 40 41 42 43 43 43 44 45 45 45 45 46 44 44 44 45 46 47 48 49 49 49 49 49 50 51 53 54 55 55 55
28 29 30 32 34 35 34 35 35 35 35 36 37 38 38 38 39 40 41 42 42 43 43 44 44 45 46 46 46 46 46 46 47 47 46 46 47 49 49 49 49 50 50 51 52 54 54 55 55
29 29 30 32 34 34 35 35 35 35 36 37 37 37 37 37 38 39 40 42 43 43 44 44 44 45 46 47 48 48 48 48 48 49 49 48 47 47 48 49 50 51 51 51 53 54 55 55 55
29 28 28 30 32 33 34 33 33 32 34 35 36 36 36 37 37 38 39 41 42 43 43 44 44 45 45 47 47 48 48 49 49 49 49 50 50 49 48 49 50 51 51 51 52 53 54 55 55
28 28 29 30 31 32 33 32 31 32 32 34 34 35 36 36 37 38 39 40 41 42 44 44 44 45 46 46 47 48 48 48 49 49 50 50 50 51 51 50 50 50 51 51 51 52 54 55 55
28 29 29 30 31 32 32 31 31 32 33 34 34 35 36 36 37 38 39 40 41 42 43 44 45 46 47 47 47 48 48 48 49 50 50 51 51 51 51 52 52 52 52 52 53 53 54 54 55
Wind_Direction
244 245 244 244 245 246 245 244 243 240 241 241 241 242 243 245 245 248 247 246 245 244 243 245 245 245 245 245 245 246 245 244 241 237 236 235 233 232 232 231 232 229 227 225 225 225 224 223 221
246 245 245 245 246 247 247 245 245 242 242 242 242 243 243 245 246 248 248 248 247 246 244 245 246 247 247 246 245 246 246 244 243 240 237 236 236 235 235 234 234 232 230 228 228 228 227 228 229
247 246 246 246 246 248 248 246 246 244 242 242 242 243 244 246 247 249 250 249 249 249 248 248 248 248 248 248 247 248 248 248 245 243 239 238 237 237 237 235 234 233 231 230 230 232 232 233 234
246 246 246 247 247 247 248 248 247 246 243 243 244 246 246 248 248 249 250 251 252 251 252 251 251 250 249 249 249 249 249 249 248 246 242 240 239 239 238 236 235 235 234 233 233 235 235 235 236
245 246 247 248 248 247 247 247 247 246 245 245 245 246 246 247 247 248 250 252 252 251 251 253 251 250 251 251 250 249 249 248 248 247 245 243 241 242 241 238 238 238 236 233 235 237 237 237 237
245 247 248 248 247 247 246 247 247 247 246 245 246 246 246 246 247 248 250 252 253 253 253 253 252 251 252 252 251 250 249 248 248 247 245 244 243 243 242 240 239 239 239 236 236 237 239 239 240
247 248 249 249 247 246 246 246 246 246 246 246 246 247 245 246 247 249 250 251 253 254 254 254 254 253 254 254 252 250 249 248 247 247 245 244 243 243 243 242 241 241 240 239 239 240 240 241 242
249 249 249 249 248 247 246 246 246 246 245 246 247 247 246 247 248 249 251 252 254 255 256 256 256 256 256 256 253 251 250 249 247 246 245 244 243 243 244 243 242 242 241 241 241 242 241 242 244
249 249 250 250 250 248 246 244 244 246 247 247 247 249 248 248 248 250 251 253 254 256 257 257 257 257 257 256 255 252 250 249 247 246 246 245 244 244 244 244 243 243 242 241 241 242 243 243 244
251 251 251 251 250 249 247 245 244 246 247 248 248 249 250 249 250 250 251 252 254 256 257 258 257 257 257 257 256 254 252 250 249 247 247 246 245 244 244 246 246 244 243 242 243 242 243 244 244
253 253 252 252 250 249 247 245 245 246 248 249 249 249 250 251 251 251 252 253 254 256 257 258 259 258 257 256 256 255 252 250 250 248 247 247 247 246 245 246 246 246 246 244 244 243 244 244 245
256 255 253 252 250 249 248 246 246 247 248 248 249 250 251 251 252 252 252 253 255 256 258 258 259 259 257 256 254 255 252 250 249 248 247 246 247 247 247 247 247 246 245 244 244 244 244 245 246
256 255 254 252 251 250 249 247 247 247 248 249 249 251 252 253 252 252 252 253 254 256 258 258 259 259 258 257 256 254 253 251 250 250 249 249 247 247 248 247 246 245 244 244 245 246 245 245 245
256 254 254 253 252 252 251 250 249 248 250 250 251 251 252 254 253 253 253 254 255 257 258 258 258 258 258 257 256 255 254 252 251 251 250 250 249 249 248 247 247 246 246 246 246 247 246 245 245
256 255 254 253 253 253 253 252 251 251 252 252 252 252 252 253 253 253 253 254 256 258 259 259 258 258 258 257 257 256 254 253 251 251 250 250 249 248 248 249 249 247 246 246 246 247 247 246 246
256 255 256 255 255 255 255 254 252 252 253 253 253 253 253 253 254 254 254 256 257 258 258 258 258 258 258 258 258 257 255 255 254 251 251 250 249 248 249 249 248 247 247 247 247 247 247 247 247
258 257 257 257 256 256 256 255 253 253 254 255 255 255 254 254 254 255 256 257 258 258 258 258 258 258 258 257 257 258 258 257 256 254 252 252 250 249 249 249 249 248 248 248 247 248 248 248 247
262 260 258 258 257 256 256 256 255 255 255 256 256 256 255 256 256 257 257 257 258 258 258 259 258 258 258 258 257 258 259 259 258 256 255 253 252 250 250 249 249 249 248 248 248 248 248 249 248
262 261 259 257 257 257 256 257 257 257 256 256 257 257 256 257 258 258 258 258 259 259 259 259 259 259 259 258 259 258 259 259 259 258 256 255 254 252 250 250 250 249 248 248 247 248 249 250 250
262 262 260 258 258 258 257 258 258 258 258 258 258 258 258 258 259 259 259 260 259 259 259 259 259 261 260 259 259 259 258 259 258 257 256 255 253 253 252 251 250 249 248 248 247 248 249 250 251
263 262 261 261 260 260 260 259 258 259 259 259 259 259 259 259 260 261 260 260 260 260 259 260 260 261 261 260 260 260 260 258 256 255 255 255 254 253 253 253 252 250 249 248 248 248 249 249 250
264 262 263 264 264 261 261 262 258 259 260 260 260 260 260 261 261 262 261 260 259 259 259 259 259 260 260 260 260 261 260 258 257 256 256 255 254 253 253 253 254 252 250 249 249 248 249 250 250
267 265 266 266 266 265 263 263 262 261 261 262 262 262 261 261 261 262 261 260 259 259 259 259 259 259 260 260 261 261 259 258 257 256 256 256 255 254 254 254 254 253 251 250 250 249 250 251 251
269 268 268 268 268 268 267 266 265 264 264 264 264 264 263 262 263 262 261 260 260 259 259 259 259 259 260 261 260 260 259 258 256 255 256 256 255 255 255 254 255 254 252 251 250 249 250 252 251
272 271 272 272 270 269 269 269 268 266 265 265 266 266 265 265 264 263 262 260 260 260 260 260 259 260 260 260 260 258 258 258 258 256 256 256 256 256 255 256 256 255 254 253 251 250 250 251 252
273 273 272 273 273 273 270 270 270 268 267 267 268 268 267 267 266 264 263 262 262 261 261 261 260 260 261 260 259 258 259 259 258 257 257 257 257 255 254 256 256 256 255 254 253 251 251 251 251
274 274 274 273 274 274 273 272 271 270 269 269 269 269 269 268 267 266 264 263 262 262 261 261 261 261 262 261 259 258 259 259 259 259 258 258 256 255 255 256 256 256 255 254 254 253 252 252 251
276 276 275 274 275 277 276 275 276 274 272 271 271 270 271 269 268 267 266 264 263 262 261 261 261 262 262 261 260 259 260 260 260 260 260 260 258 257 257 256 255 254 254 254 254 252 251 251 251
277 277 276 275 275 276 278 279 278 276 274 274 274 273 272 271 270 269 268 267 265 264 263 262 263 263 262 260 260 260 260 261 261 262 261 260 260 258 257 257 256 256 255 255 254 254 252 252 253
280 280 278 276 275 275 276 278 278 278 277 276 276 275 273 273 273 271 270 269 267 267 266 264 264 264 263 261 260 259 260 261 261 262 261 261 261 260 258 258 257 257 256 256 255 255 254 253 253
Height
5809 5810 5812 5813 5815 5816 5817 5820 5822 5823 5823 5824 5825 5826 5828 5829 5831 5834 5833 5833 5834 5835 5836 5837 5838 5839 5840 5841 5842 5842 5843 5844 5845 5846 5846 5847 5848 5848 5849 5849 5850 5851 5851 5852 5853 5854 5855 5855 5856
5804 5806 5807 5808 5810 5811 5814 5816 5817 5819 5820 5820 5821 5822 5824 5825 5826 5828 5829 5829 5830 5831 5832 5833 5835 5836 5836 5837 5838 5839 5840 5841 5842 5842 5843 5844 5845 5845 5846 5847 5847 5848 5849 5850 5850 5852 5852 5853 5854
5799 5800 5802 5803 5805 5808 5810 5812 5813 5814 5815 5816 5817 5818 5819 5821 5822 5823 5824 5825 5826 5827 5828 5830 5831 5832 5833 5834 5834 5835 5836 5837 5838 5839 5840 5841 5841 5842 5843 5844 5844 5845 5846 5847 5848 5849 5850 5851 5852
5794 5795 5797 5799 5800 5803 5805 5806 5807 5809 5810 5811 5812 5814 5815 5817 5818 5819 5820 5821 5822 5823 5824 5825 5826 5828 5829 5830 5830 5831 5832 5833 5834 5835 5836 5837 5838 5838 5839 5840 5841 5842 5843 5844 5845 5846 5847 5848 5849
5788 5789 5791 5793 5795 5798 5799 5800 5802 5803 5805 5807 5808 5809 5810 5812 5813 5814 5816 5817 5818 5819 5820 5821 5822 5823 5824 5825 5826 5827 5827 5828 5829 5830 5831 5832 5833 5834 5835 5836 5837 5838 5839 5840 5841 5842 5843 5845 5846
5783 5784 5786 5788 5790 5792 5793 5794 5796 5798 5799 5801 5802 5804 5805 5807 5808 5810 5811 5812 5813 5814 5815 5816 5816 5818 5819 5819 5820 5821 5822 5823 5824 5825 5826 5827 5828 5830 5831 5832 5833 5834 5835 5836 5837 5838 5840 5841 5842
5777 5778 5779 5782 5784 5786 5787 5788 5789 5791 5793 5795 5796 5798 5799 5801 5803 5804 5805 5807 5808 5809 5810 5811 5811 5812 5813 5814 5815 5815 5816 5817 5818 5819 5820 5821 5822 5824 5825 5827 5828 5829 5830 5831 5833 5834 5835 5837 5838
5770 5772 5773 5775 5777 5779 5781 5782 5783 5785 5787 5789 5790 5792 5794 5796 5797 5798 5800 5801 5802 5803 5804 5805 5806 5806 5807 5808 5808 5809 5810 5811 5812 5813 5814 5815 5816 5818 5820 5821 5822 5824 5825 5826 5828 5829 5830 5832 5833
5764 5766 5768 5770 5771 5773 5774 5775 5777 5778 5780 5782 5784 5786 5788 5789 5791 5792 5794 5795 5796 5797 5798 5798 5799 5800 5800 5801 5801 5802 5803 5804 5805 5806 5807 5809 5810 5811 5813 5815 5816 5818 5819 5820 5822 5824 5825 5827 5828
5757 5759 5762 5763 5764 5765 5767 5768 5770 5772 5773 5776 5777 5779 5780 5782 5784 5785 5787 5788 5789 5790 5790 5791 5792 5792 5793 5793 5794 5794 5795 5796 5797 5799 5800 5801 5803 5804 5806 5808 5809 5811 5812 5814 5816 5818 5819 5821 5822
5750 5752 5754 5755 5756 5758 5759 5761 5763 5764 5767 5769 5770 5772 5773 5775 5776 5778 5779 5780 5781 5782 5783 5783 5784 5784 5785 5785 5786 5787 5787 5788 5789 5790 5792 5793 5795 5797 5799 5800 5802 5804 5806 5807 5809 5811 5813 5815 5816
5743 5745 5746 5747 5748 5750 5751 5753 5755 5757 5759 5761 5762 5764 5765 5767 5768 5770 5771 5772 5773 5774 5774 5775 5775 5776 5776 5777 5778 5778 5779 5780 5781 5782 5783 5785 5786 5788 5790 5792 5794 5796 5798 5800 5802 5804 5806 5808 5810
5736 5737 5738 5739 5740 5741 5743 5744 5746 5749 5750 5752 5754 5755 5757 5758 5760 5761 5762 5763 5764 5765 5766 5766 5767 5767 5768 5768 5769 5770 5771 5772 5773 5774 5775 5776 5778 5779 5781 5784 5786 5788 5790 5793 5794 5797 5798 5800 5802
5728 5728 5730 5731 5732 5733 5735 5736 5738 5740 5741 5743 5745 5746 5748 5749 5750 5752 5753 5754 5756 5756 5757 5757 5758 5758 5759 5760 5760 5761 5762 5763 5764 5765 5766 5767 5769 5770 5772 5774 5777 5779 5781 5784 5786 5788 5790 5792 5794
5719 5721 5722 5723 5724 5725 5726 5728 5730 5731 5733 5734 5736 5737 5739 5740 5741 5743 5744 5745 5746 5747 5748 5748 5749 5749 5750 5750 5751 5752 5753 5754 5755 5756 5757 5758 5760 5761 5763 5765 5767 5769 5772 5774 5777 5779 5782 5784 5786
5712 5713 5714 5716 5716 5717 5720 5721 5722 5723 5724 5725 5726 5728 5729 5730 5731 5733 5734 5735 5736 5737 5737 5738 5739 5740 5740 5741 5741 5742 5743 5744 5745 5746 5747 5748 5750 5752 5753 5755 5757 5759 5762 5765 5768 5770 5772 5775 5777
5704 5705 5706 5708 5708 5709 5710 5712 5714 5714 5715 5716 5717 5718 5720 5721 5722 5723 5724 5725 5726 5727 5727 5728 5729 5730 5730 5730 5731 5732 5733 5733 5734 5735 5736 5737 5739 5741 5743 5745 5747 5749 5752 5755 5757 5760 5762 5765 5767
5697 5698 5698 5699 5700 5701 5702 5704 5705 5705 5705 5706 5708 5709 5710 5711 5712 5713 5714 5715 5716 5716 5717 5718 5718 5719 5719 5719 5719 5721 5721 5722 5723 5723 5724 5726 5727 5729 5731 5733 5735 5738 5741 5744 5747 5749 5752 5754 5757
5689 5689 5690 5691 5691 5692 5693 5694 5695 5696 5696 5697 5698 5699 5700 5701 5702 5702 5703 5704 5705 5706 5706 5707 5708 5708 5708 5708 5708 5709 5710 5710 5711 5711 5712 5713 5715 5717 5718 5721 5723 5726 5729 5732 5735 5738 5741 5744 5746
5681 5681 5681 5682 5682 5683 5684 5685 5686 5686 5687 5688 5688 5689 5690 5691 5692 5692 5693 5693 5694 5695 5696 5696 5696 5697 5697 5697 5697 5697 5697 5698 5698 5698 5699 5701 5703 5704 5706 5708 5711 5713 5716 5720 5723 5726 5729 5732 5735
5672 5673 5673 5673 5674 5674 5675 5676 5677 5677 5677 5678 5678 5679 5680 5681 5681 5682 5682 5683 5683 5684 5684 5685 5685 5685 5685 5685 5685 5685 5685 5685 5685 5686 5688 5689 5691 5692 5694 5696 5698 5701 5704 5707 5710 5714 5717 5720 5723
5664 5665 5665 5664 5664 5664 5666 5665 5668 5668 5668 5668 5669 5669 5670 5670 5671 5671 5671 5671 5672 5672 5673 5673 5673 5674 5674 5674 5674 5673 5673 5673 5674 5675 5676 5677 5678 5680 5682 5684 5686 5688 5691 5694 5697 5701 5704 5707 5710
5656 5656 5656 5656 5655 5655 5655 5655 5658 5658 5658 5659 5659 5659 5659 5659 5659 5659 5659 5659 5660 5660 5660 5661 5661 5662 5662 5662 5662 5661 5661 5661 5662 5663 5664 5665 5666 5668 5670 5672 5673 5675 5678 5680 5684 5687 5691 5694 5697
5648 5648 5647 5646 5646 5645 5647 5646 5647 5648 5649 5649 5649 5649 5648 5648 5648 5648 5647 5648 5648 5648 5649 5649 5650 5650 5650 5650 5649 5649 5649 5649 5650 5651 5652 5653 5654 5655 5657 5659 5661 5663 5665 5667 5670 5674 5677 5680 5683
5640 5640 5638 5637 5636 5636 5637 5635 5637 5639 5638 5638 5638 5638 5637 5637 5637 5636 5636 5636 5636 5636 5637 5637 5638 5638 5638 5637 5637 5637 5637 5638 5638 5639 5640 5641 5642 5643 5645 5646 5648 5650 5652 5654 5657 5660 5663 5666 5669
5632 5631 5631 5629 5628 5627 5627 5626 5628 5629 5628 5627 5627 5627 5627 5626 5626 5625 5625 5625 5625 5625 5625 5625 5625 5625 5625 5625 5625 5625 5625 5625 5626 5626 5627 5628 5629 5630 5632 5633 5635 5637 5639 5641 5643 5646 5649 5652 5655
5623 5622 5622 5620 5618 5617 5617 5617 5618 5618 5617 5617 5616 5615 5615 5615 5614 5614 5614 5614 5613 5613 5613 5613 5613 5613 5613 5613 5613 5613 5613 5613 5613 5614 5614 5615 5616 5618 5619 5621 5622 5624 5626 5628 5630 5632 5635 5638 5641
5616 5614 5614 5611 5609 5607 5607 5608 5609 5608 5607 5606 5605 5604 5604 5604 5603 5603 5602 5602 5601 5601 5601 5601 5601 5601 5600 5600 5600 5600 5601 5601 5601 5601 5602 5602 5604 5605 5606 5608 5609 5611 5612 5614 5616 5618 5621 5623 5626
5608 5607 5605 5603 5601 5600 5599 5602 5600 5598 5596 5596 5595 5594 5593 5593 5592 5591 5591 5590 5590 5589 5589 5589 5589 5588 5588 5588 5588 5588 5588 5588 5588 5588 5588 5589 5590 5591 5593 5594 5596 5598 5599 5601 5603 5605 5607 5609 5612
5599 5598 5596 5595 5593 5591 5590 5594 5590 5588 5586 5585 5585 5584 5582 5581 5580 5580 5579 5578 5577 5577 5577 5576 5576 5575 5575 5575 5575 5575 5575 5575 5575 5575 5575 5576 5577 5578 5579 5580 5582 5584 5586 5587 5589 5591 5593 5595 5597